Time,TemperatureF,DewpointF,PressureIn,WindDirection,WindDirectionDegrees,WindSpeedMPH,WindSpeedGustMPH,Humidity,HourlyPrecipIn,Conditions,Clouds,dailyrainin,SoftwareType,DateUTC
2013-12-07 00:01:00,71.3,64.1,30.14,ENE,68,0.4,0.4,78,0.00,,,0.00,WUHU216HW,2013-12-07 05:01:00,
2013-12-07 00:03:00,71.3,64.1,30.14,ENE,68,0.4,0.4,78,0.00,,,0.00,WUHU216HW,2013-12-07 05:03:00,
2013-12-07 00:04:00,71.3,64.1,30.14,ENE,68,0.4,0.4,78,0.00,,,0.00,WUHU216HW,2013-12-07 05:04:00,
2013-12-07 00:09:00,71.3,64.1,30.14,ENE,68,0.4,0.4,78,0.00,,,0.00,WUHU216HW,2013-12-07 05:09:00,
2013-12-07 00:14:00,71.1,64.3,30.14,ENE,68,0.0,0.4,79,0.00,,,0.00,WUHU216HW,2013-12-07 05:14:00,
2013-12-07 00:18:00,71.1,64.3,30.14,ENE,68,0.0,0.4,79,0.00,,,0.00,WUHU216HW,2013-12-07 05:18:00,
2013-12-07 00:23:00,70.9,64.1,30.14,ENE,68,0.0,0.0,79,0.00,,,0.00,WUHU216HW,2013-12-07 05:23:00,
2013-12-07 00:28:00,70.9,63.7,30.14,ENE,68,0.0,0.0,78,0.00,,,0.00,WUHU216HW,2013-12-07 05:28:00,
2013-12-07 00:34:00,70.9,63.7,30.14,ENE,68,0.0,0.0,78,0.00,,,0.00,WUHU216HW,2013-12-07 05:34:00,
2013-12-07 00:39:00,70.9,63.7,30.14,ENE,68,0.0,0.0,78,0.00,,,0.00,WUHU216HW,2013-12-07 05:39:00,
2013-12-07 00:44:00,70.7,63.9,30.14,ENE,68,0.0,0.0,79,0.00,,,0.00,WUHU216HW,2013-12-07 05:44:00,
2013-12-07 00:50:00,70.7,63.9,30.14,ENE,68,0.0,0.0,79,0.00,,,0.00,WUHU216HW,2013-12-07 05:50:00,
2013-12-07 00:55:00,70.7,63.9,30.14,ENE,68,0.0,0.0,79,0.00,,,0.00,WUHU216HW,2013-12-07 05:55:00,
2013-12-07 01:00:00,70.6,63.7,30.14,ENE,68,0.0,0.0,79,0.00,,,0.00,WUHU216HW,2013-12-07 06:00:00,
2013-12-07 01:05:00,70.4,63.6,30.14,ENE,68,0.0,0.0,79,0.00,,,0.00,WUHU216HW,2013-12-07 06:05:00,
2013-12-07 01:10:00,70.4,63.6,30.14,ENE,68,0.0,0.0,79,0.00,,,0.00,WUHU216HW,2013-12-07 06:10:00,
2013-12-07 01:15:00,70.2,63.4,30.14,ENE,68,0.0,0.0,79,0.00,,,0.00,WUHU216HW,2013-12-07 06:15:00,
2013-12-07 01:20:00,70.2,63.4,30.14,ENE,68,0.0,0.2,79,0.00,,,0.00,WUHU216HW,2013-12-07 06:20:00,
2013-12-07 01:25:00,70.2,63.4,30.14,ENE,68,0.2,0.4,79,0.00,,,0.00,WUHU216HW,2013-12-07 06:25:00,
2013-12-07 01:30:00,70.2,63.4,30.14,NNE,23,0.4,0.4,79,0.00,,,0.00,WUHU216HW,2013-12-07 06:30:00,
2013-12-07 01:35:00,70.2,63.4,30.14,North,0,0.2,0.4,79,0.00,,,0.00,WUHU216HW,2013-12-07 06:35:00,
2013-12-07 01:40:00,70.0,63.2,30.14,North,0,0.2,0.9,79,0.00,,,0.00,WUHU216HW,2013-12-07 06:40:00,
2013-12-07 01:45:00,70.0,63.2,30.14,North,0,0.4,0.9,79,0.00,,,0.00,WUHU216HW,2013-12-07 06:45:00,
2013-12-07 01:50:00,70.0,63.2,30.14,North,0,0.0,0.4,79,0.00,,,0.00,WUHU216HW,2013-12-07 06:50:00,
2013-12-07 01:56:00,69.8,63.0,30.13,North,0,0.0,0.4,79,0.00,,,0.00,WUHU216HW,2013-12-07 06:56:00,
2013-12-07 02:01:00,69.8,63.0,30.14,North,0,0.0,0.0,79,0.00,,,0.00,WUHU216HW,2013-12-07 07:01:00,
2013-12-07 02:06:00,69.8,63.0,30.13,North,0,0.0,0.0,79,0.00,,,0.00,WUHU216HW,2013-12-07 07:06:00,
2013-12-07 02:11:00,69.8,63.0,30.13,North,0,0.4,0.4,79,0.00,,,0.00,WUHU216HW,2013-12-07 07:11:00,
2013-12-07 02:16:00,69.7,62.8,30.13,NE,45,0.0,0.7,79,0.00,,,0.00,WUHU216HW,2013-12-07 07:16:00,
2013-12-07 02:21:00,69.7,62.8,30.13,NE,45,0.0,0.7,79,0.00,,,0.00,WUHU216HW,2013-12-07 07:21:00,
2013-12-07 02:26:00,69.7,62.8,30.13,NE,45,0.0,0.4,79,0.00,,,0.00,WUHU216HW,2013-12-07 07:26:00,
2013-12-07 02:31:00,69.5,62.6,30.13,NE,45,0.0,0.0,79,0.00,,,0.00,WUHU216HW,2013-12-07 07:31:00,
2013-12-07 02:36:00,69.5,62.6,30.13,NE,45,0.0,0.0,79,0.00,,,0.00,WUHU216HW,2013-12-07 07:36:00,
2013-12-07 02:41:00,69.5,62.6,30.13,NE,45,0.0,0.0,79,0.00,,,0.00,WUHU216HW,2013-12-07 07:41:00,
2013-12-07 02:46:00,69.5,62.6,30.13,NE,45,0.0,0.0,79,0.00,,,0.00,WUHU216HW,2013-12-07 07:46:00,
2013-12-07 02:51:00,69.5,62.6,30.13,NE,45,0.0,0.4,79,0.00,,,0.00,WUHU216HW,2013-12-07 07:51:00,
2013-12-07 02:56:00,69.3,62.5,30.13,NE,45,0.0,0.4,79,0.00,,,0.00,WUHU216HW,2013-12-07 07:56:00,
2013-12-07 03:02:00,69.3,62.5,30.13,NE,45,0.0,0.2,79,0.00,,,0.00,WUHU216HW,2013-12-07 08:02:00,
2013-12-07 03:07:00,69.1,62.7,30.13,NE,45,0.0,0.2,80,0.00,,,0.00,WUHU216HW,2013-12-07 08:07:00,
2013-12-07 03:12:00,69.1,62.4,30.13,NE,45,0.0,0.0,79,0.00,,,0.00,WUHU216HW,2013-12-07 08:12:00,
2013-12-07 03:17:00,69.1,62.7,30.13,NE,45,0.0,0.2,80,0.00,,,0.00,WUHU216HW,2013-12-07 08:17:00,
2013-12-07 03:22:00,69.1,62.7,30.13,NE,45,0.0,0.4,80,0.00,,,0.00,WUHU216HW,2013-12-07 08:22:00,
2013-12-07 03:27:00,69.1,62.7,30.13,NE,45,0.0,0.4,80,0.00,,,0.00,WUHU216HW,2013-12-07 08:27:00,
2013-12-07 03:32:00,69.1,62.7,30.13,NNE,23,0.0,0.0,80,0.00,,,0.00,WUHU216HW,2013-12-07 08:32:00,
2013-12-07 03:37:00,68.9,62.6,30.13,NNE,23,0.2,0.2,80,0.00,,,0.00,WUHU216HW,2013-12-07 08:37:00,
2013-12-07 03:42:00,68.9,62.6,30.13,NNE,23,0.0,0.2,80,0.00,,,0.00,WUHU216HW,2013-12-07 08:42:00,
2013-12-07 03:47:00,68.8,62.4,30.13,NNE,23,0.0,0.2,80,0.00,,,0.00,WUHU216HW,2013-12-07 08:47:00,
2013-12-07 03:52:00,68.8,62.4,30.13,NNE,23,0.0,0.2,80,0.00,,,0.00,WUHU216HW,2013-12-07 08:52:00,
2013-12-07 03:57:00,68.8,62.4,30.13,NNE,23,0.0,0.0,80,0.00,,,0.00,WUHU216HW,2013-12-07 08:57:00,
2013-12-07 04:02:00,68.8,62.4,30.13,NNE,23,0.0,0.0,80,0.00,,,0.00,WUHU216HW,2013-12-07 09:02:00,
2013-12-07 04:07:00,68.8,62.4,30.13,NE,45,0.2,0.2,80,0.00,,,0.00,WUHU216HW,2013-12-07 09:07:00,
2013-12-07 04:12:00,68.8,62.4,30.13,NE,45,0.0,0.2,80,0.00,,,0.00,WUHU216HW,2013-12-07 09:12:00,
2013-12-07 04:18:00,68.8,62.4,30.13,ESE,113,0.0,0.2,80,0.00,,,0.00,WUHU216HW,2013-12-07 09:18:00,
2013-12-07 04:23:00,68.6,62.2,30.13,ESE,113,0.0,0.2,80,0.00,,,0.00,WUHU216HW,2013-12-07 09:23:00,
2013-12-07 04:28:00,68.6,62.2,30.13,ESE,113,0.0,0.2,80,0.00,,,0.00,WUHU216HW,2013-12-07 09:28:00,
2013-12-07 04:33:00,68.6,62.2,30.12,ESE,113,0.4,0.4,80,0.00,,,0.00,WUHU216HW,2013-12-07 09:33:00,
2013-12-07 04:38:00,68.4,62.1,30.12,ENE,68,0.7,0.7,80,0.00,,,0.00,WUHU216HW,2013-12-07 09:38:00,
2013-12-07 04:43:00,68.4,62.1,30.12,ENE,68,0.0,0.7,80,0.00,,,0.00,WUHU216HW,2013-12-07 09:43:00,
2013-12-07 04:48:00,68.4,62.1,30.12,ENE,68,0.0,0.2,80,0.00,,,0.00,WUHU216HW,2013-12-07 09:48:00,
2013-12-07 04:53:00,68.4,62.1,30.12,NE,45,0.0,0.9,80,0.00,,,0.00,WUHU216HW,2013-12-07 09:53:00,
2013-12-07 04:58:00,68.4,62.1,30.12,NNE,23,0.4,0.9,80,0.00,,,0.00,WUHU216HW,2013-12-07 09:58:00,
2013-12-07 05:03:00,68.4,62.1,30.12,NNE,23,1.1,1.1,80,0.00,,,0.00,WUHU216HW,2013-12-07 10:03:00,
2013-12-07 05:08:00,68.2,61.9,30.13,NNE,23,0.0,1.1,80,0.00,,,0.00,WUHU216HW,2013-12-07 10:08:00,
2013-12-07 05:13:00,68.2,61.9,30.12,NNE,23,0.0,0.4,80,0.00,,,0.00,WUHU216HW,2013-12-07 10:13:00,
2013-12-07 05:18:00,68.2,61.9,30.12,East,90,0.7,0.7,80,0.00,,,0.00,WUHU216HW,2013-12-07 10:18:00,
2013-12-07 05:23:00,68.2,61.9,30.13,ESE,113,0.0,0.7,80,0.00,,,0.00,WUHU216HW,2013-12-07 10:23:00,
2013-12-07 05:29:00,68.2,61.9,30.13,NE,45,0.0,1.1,80,0.00,,,0.00,WUHU216HW,2013-12-07 10:29:00,
2013-12-07 05:34:00,68.2,61.9,30.13,ENE,68,0.0,1.1,80,0.00,,,0.00,WUHU216HW,2013-12-07 10:34:00,
2013-12-07 05:39:00,68.0,61.7,30.13,ENE,68,0.0,0.4,80,0.00,,,0.00,WUHU216HW,2013-12-07 10:39:00,
2013-12-07 05:44:00,68.0,61.7,30.14,ENE,68,0.0,0.4,80,0.00,,,0.00,WUHU216HW,2013-12-07 10:44:00,
2013-12-07 05:49:00,68.0,61.7,30.14,East,90,0.4,0.4,80,0.00,,,0.00,WUHU216HW,2013-12-07 10:49:00,
2013-12-07 05:54:00,68.0,61.7,30.14,ESE,113,0.2,0.7,80,0.00,,,0.00,WUHU216HW,2013-12-07 10:54:00,
2013-12-07 05:59:00,68.0,61.7,30.14,East,90,0.2,0.7,80,0.00,,,0.00,WUHU216HW,2013-12-07 10:59:00,
2013-12-07 06:04:00,68.0,61.7,30.14,ESE,113,0.4,0.7,80,0.00,,,0.00,WUHU216HW,2013-12-07 11:04:00,
2013-12-07 06:09:00,68.0,61.7,30.14,ENE,68,0.4,0.7,80,0.00,,,0.00,WUHU216HW,2013-12-07 11:09:00,
2013-12-07 06:14:00,68.0,61.7,30.14,East,90,0.0,0.9,80,0.00,,,0.00,WUHU216HW,2013-12-07 11:14:00,
2013-12-07 06:19:00,68.0,61.7,30.14,East,90,0.0,0.9,80,0.00,,,0.00,WUHU216HW,2013-12-07 11:19:00,
2013-12-07 06:24:00,68.0,61.7,30.14,East,90,0.0,0.7,80,0.00,,,0.00,WUHU216HW,2013-12-07 11:24:00,
2013-12-07 06:29:00,68.0,61.7,30.14,ENE,68,0.4,0.7,80,0.00,,,0.00,WUHU216HW,2013-12-07 11:29:00,
2013-12-07 06:34:00,68.0,61.7,30.15,ESE,113,1.1,1.1,80,0.00,,,0.00,WUHU216HW,2013-12-07 11:34:00,
2013-12-07 06:39:00,68.0,61.7,30.15,ESE,113,1.1,1.1,80,0.00,,,0.00,WUHU216HW,2013-12-07 11:39:00,
2013-12-07 06:59:00,67.9,61.6,30.16,ENE,68,0.0,0.0,80,0.00,,,0.00,WUHU216HW,2013-12-07 11:59:00,
2013-12-07 07:04:00,67.7,61.4,30.16,ENE,68,0.4,0.4,80,0.00,,,0.00,WUHU216HW,2013-12-07 12:04:00,
2013-12-07 07:10:00,67.7,61.4,30.16,ENE,68,0.4,1.1,80,0.00,,,0.00,WUHU216HW,2013-12-07 12:10:00,
2013-12-07 07:15:00,67.7,61.4,30.16,ENE,68,0.4,1.1,80,0.00,,,0.00,WUHU216HW,2013-12-07 12:15:00,
2013-12-07 07:20:00,67.7,61.4,30.16,East,90,0.0,0.4,80,0.00,,,0.00,WUHU216HW,2013-12-07 12:20:00,
2013-12-07 07:25:00,67.9,61.6,30.16,ENE,68,0.0,0.4,80,0.00,,,0.00,WUHU216HW,2013-12-07 12:25:00,
2013-12-07 07:30:00,67.9,61.6,30.16,NE,45,1.1,1.1,80,0.00,,,0.00,WUHU216HW,2013-12-07 12:30:00,
2013-12-07 07:35:00,68.0,61.7,30.17,SE,135,1.1,1.1,80,0.00,,,0.00,WUHU216HW,2013-12-07 12:35:00,
2013-12-07 07:40:00,67.9,61.6,30.16,NNE,23,0.4,1.1,80,0.00,,,0.00,WUHU216HW,2013-12-07 12:40:00,
2013-12-07 07:45:00,68.0,61.7,30.17,NNE,23,1.1,1.1,80,0.00,,,0.00,WUHU216HW,2013-12-07 12:45:00,
2013-12-07 07:50:00,68.0,61.4,30.17,North,0,0.0,1.1,79,0.00,,,0.00,WUHU216HW,2013-12-07 12:50:00,
2013-12-07 07:55:00,68.0,61.4,30.17,NE,45,0.0,1.1,79,0.00,,,0.00,WUHU216HW,2013-12-07 12:55:00,
2013-12-07 08:00:00,68.0,61.4,30.17,ENE,68,0.4,1.1,79,0.00,,,0.00,WUHU216HW,2013-12-07 13:00:00,
2013-12-07 08:05:00,68.0,61.4,30.17,ENE,68,0.4,0.9,79,0.00,,,0.00,WUHU216HW,2013-12-07 13:05:00,
2013-12-07 08:10:00,68.2,61.6,30.17,ENE,68,0.9,1.1,79,0.00,,,0.00,WUHU216HW,2013-12-07 13:10:00,
2013-12-07 08:15:00,68.4,61.7,30.17,NNE,23,0.0,1.8,79,0.00,,,0.00,WUHU216HW,2013-12-07 13:15:00,
2013-12-07 08:21:00,68.6,61.5,30.17,SE,135,0.2,1.8,78,0.00,,,0.00,WUHU216HW,2013-12-07 13:21:00,
2013-12-07 08:26:00,68.6,61.8,30.17,ESE,113,0.9,1.3,79,0.00,,,0.00,WUHU216HW,2013-12-07 13:26:00,
2013-12-07 08:31:00,68.6,61.8,30.17,ESE,113,1.8,1.8,79,0.00,,,0.00,WUHU216HW,2013-12-07 13:31:00,
2013-12-07 08:36:00,68.8,62.0,30.18,ESE,113,1.3,1.8,79,0.00,,,0.00,WUHU216HW,2013-12-07 13:36:00,
2013-12-07 08:41:00,68.8,62.0,30.18,ESE,113,0.2,1.6,79,0.00,,,0.00,WUHU216HW,2013-12-07 13:41:00,
2013-12-07 08:46:00,69.1,62.4,30.18,East,90,0.4,2.0,79,0.00,,,0.00,WUHU216HW,2013-12-07 13:46:00,
2013-12-07 08:51:00,69.3,62.5,30.18,ENE,68,0.4,2.0,79,0.00,,,0.00,WUHU216HW,2013-12-07 13:51:00,
2013-12-07 08:56:00,69.7,62.8,30.18,NE,45,0.4,1.8,79,0.00,,,0.00,WUHU216HW,2013-12-07 13:56:00,
2013-12-07 09:01:00,69.8,63.0,30.18,North,0,0.4,1.1,79,0.00,,,0.00,WUHU216HW,2013-12-07 14:01:00,
2013-12-07 09:06:00,70.2,63.4,30.18,ESE,113,1.3,1.3,79,0.00,,,0.00,WUHU216HW,2013-12-07 14:06:00,
2013-12-07 09:11:00,70.2,63.4,30.18,ESE,113,1.1,2.7,79,0.00,,,0.00,WUHU216HW,2013-12-07 14:11:00,
2013-12-07 09:16:00,70.9,63.7,30.18,ESE,113,1.8,2.7,78,0.00,,,0.00,WUHU216HW,2013-12-07 14:16:00,
2013-12-07 09:21:00,71.5,64.3,30.19,NE,45,0.4,2.0,78,0.00,,,0.00,WUHU216HW,2013-12-07 14:21:00,
2013-12-07 09:26:00,72.0,64.8,30.18,East,90,1.8,2.2,78,0.00,,,0.00,WUHU216HW,2013-12-07 14:26:00,
2013-12-07 09:31:00,72.4,65.2,30.18,East,90,2.0,3.1,78,0.00,,,0.00,WUHU216HW,2013-12-07 14:31:00,
2013-12-07 09:37:00,72.7,65.9,30.18,ESE,113,1.1,3.1,79,0.00,,,0.00,WUHU216HW,2013-12-07 14:37:00,
2013-12-07 09:42:00,72.9,66.4,30.19,ESE,113,1.8,2.5,80,0.00,,,0.00,WUHU216HW,2013-12-07 14:42:00,
2013-12-07 09:47:00,73.3,66.8,30.19,ESE,113,1.8,3.4,80,0.00,,,0.00,WUHU216HW,2013-12-07 14:47:00,
2013-12-07 09:52:00,73.4,66.6,30.19,East,90,1.1,3.4,79,0.00,,,0.00,WUHU216HW,2013-12-07 14:52:00,
2013-12-07 09:57:00,73.8,67.0,30.19,SE,135,1.1,3.4,79,0.00,,,0.00,WUHU216HW,2013-12-07 14:57:00,
2013-12-07 10:02:00,74.3,67.5,30.19,East,90,2.9,2.9,79,0.00,,,0.00,WUHU216HW,2013-12-07 15:02:00,
2013-12-07 10:07:00,74.3,67.5,30.19,East,90,2.9,2.9,79,0.00,,,0.00,WUHU216HW,2013-12-07 15:07:00,
2013-12-07 10:31:00,76.3,68.9,30.18,SE,135,1.1,1.1,78,0.00,,,0.00,WUHU216HW,2013-12-07 15:31:00,
2013-12-07 10:37:00,76.5,69.1,30.19,SSE,158,1.1,2.5,78,0.00,,,0.00,WUHU216HW,2013-12-07 15:37:00,
2013-12-07 10:42:00,76.7,69.3,30.19,ESE,113,0.4,3.8,78,0.00,,,0.00,WUHU216HW,2013-12-07 15:42:00,
2013-12-07 10:47:00,77.0,69.2,30.19,SE,135,2.5,4.0,77,0.00,,,0.00,WUHU216HW,2013-12-07 15:47:00,
2013-12-07 10:52:00,77.2,69.9,30.18,SE,135,2.5,4.0,78,0.00,,,0.00,WUHU216HW,2013-12-07 15:52:00,
2013-12-07 10:57:00,77.4,69.6,30.18,SE,135,3.8,3.8,77,0.00,,,0.00,WUHU216HW,2013-12-07 15:57:00,
2013-12-07 11:02:00,77.8,69.6,30.18,ESE,113,1.6,3.8,76,0.00,,,0.00,WUHU216HW,2013-12-07 16:02:00,
2013-12-07 11:07:00,77.9,70.1,30.18,ESE,113,6.0,6.0,77,0.00,,,0.00,WUHU216HW,2013-12-07 16:07:00,
2013-12-07 11:12:00,78.1,70.3,30.18,ESE,113,0.4,6.0,77,0.00,,,0.00,WUHU216HW,2013-12-07 16:12:00,
2013-12-07 11:17:00,78.5,70.3,30.18,NE,45,2.7,3.4,76,0.00,,,0.00,WUHU216HW,2013-12-07 16:17:00,
2013-12-07 11:22:00,78.7,70.4,30.17,SSE,158,1.3,3.4,76,0.00,,,0.00,WUHU216HW,2013-12-07 16:22:00,
2013-12-07 11:27:00,78.8,70.2,30.17,ESE,113,2.5,3.4,75,0.00,,,0.00,WUHU216HW,2013-12-07 16:27:00,
2013-12-07 11:32:00,79.2,70.6,30.17,ESE,113,0.9,4.3,75,0.00,,,0.00,WUHU216HW,2013-12-07 16:32:00,
2013-12-07 11:37:00,79.7,71.1,30.17,SE,135,0.4,4.3,75,0.00,,,0.00,WUHU216HW,2013-12-07 16:37:00,
2013-12-07 11:42:00,79.7,70.3,30.17,SE,135,1.1,2.5,73,0.00,,,0.00,WUHU216HW,2013-12-07 16:42:00,
2013-12-07 11:48:00,80.1,71.5,30.17,SE,135,1.1,2.5,75,0.00,,,0.00,WUHU216HW,2013-12-07 16:48:00,
2013-12-07 11:53:00,80.3,71.3,30.17,East,90,1.8,2.5,74,0.00,,,0.00,WUHU216HW,2013-12-07 16:53:00,
2013-12-07 11:58:00,80.3,70.8,30.16,ESE,113,2.5,3.6,73,0.00,,,0.00,WUHU216HW,2013-12-07 16:58:00,
2013-12-07 12:03:00,80.5,70.7,30.16,ESE,113,4.0,4.0,72,0.00,,,0.00,WUHU216HW,2013-12-07 17:03:00,
2013-12-07 12:08:00,80.6,70.8,30.16,NNW,338,1.8,4.0,72,0.00,,,0.00,WUHU216HW,2013-12-07 17:08:00,
2013-12-07 12:13:00,80.6,70.4,30.16,South,180,0.9,3.4,71,0.00,,,0.00,WUHU216HW,2013-12-07 17:13:00,
2013-12-07 12:18:00,80.6,70.4,30.16,ESE,113,3.4,3.4,71,0.00,,,0.00,WUHU216HW,2013-12-07 17:18:00,
2013-12-07 12:23:00,81.0,70.7,30.15,East,90,1.1,4.7,71,0.00,,,0.00,WUHU216HW,2013-12-07 17:23:00,
2013-12-07 12:28:00,81.0,69.5,30.15,SE,135,2.5,4.7,68,0.00,,,0.00,WUHU216HW,2013-12-07 17:28:00,
2013-12-07 12:33:00,81.2,70.9,30.15,SSE,158,1.1,2.9,71,0.00,,,0.00,WUHU216HW,2013-12-07 17:33:00,
2013-12-07 12:38:00,81.4,71.1,30.15,SSE,158,2.0,2.9,71,0.00,,,0.00,WUHU216HW,2013-12-07 17:38:00,
2013-12-07 12:43:00,81.9,72.0,30.14,South,180,1.3,2.0,72,0.00,,,0.00,WUHU216HW,2013-12-07 17:43:00,
2013-12-07 12:48:00,82.1,70.4,30.13,East,90,1.3,1.8,68,0.00,,,0.00,WUHU216HW,2013-12-07 17:48:00,
2013-12-07 12:53:00,82.3,71.5,30.13,ESE,113,0.4,3.4,70,0.00,,,0.00,WUHU216HW,2013-12-07 17:53:00,
2013-12-07 12:59:00,82.4,71.6,30.13,NNE,23,2.2,3.4,70,0.00,,,0.00,WUHU216HW,2013-12-07 17:59:00,
2013-12-07 13:04:00,82.4,71.2,30.13,SSE,158,2.7,3.4,69,0.00,,,0.00,WUHU216HW,2013-12-07 18:04:00,
2013-12-07 13:09:00,82.6,72.3,30.12,SSE,158,0.7,2.7,71,0.00,,,0.00,WUHU216HW,2013-12-07 18:09:00,
2013-12-07 13:14:00,83.0,72.2,30.12,SSE,158,0.9,2.2,70,0.00,,,0.00,WUHU216HW,2013-12-07 18:14:00,
2013-12-07 13:19:00,83.2,73.2,30.12,ESE,113,3.1,3.1,72,0.00,,,0.00,WUHU216HW,2013-12-07 18:19:00,
2013-12-07 13:24:00,83.2,72.4,30.12,East,90,1.6,4.3,70,0.00,,,0.00,WUHU216HW,2013-12-07 18:24:00,
2013-12-07 13:29:00,82.8,72.0,30.12,NE,45,1.8,4.3,70,0.00,,,0.00,WUHU216HW,2013-12-07 18:29:00,
2013-12-07 13:34:00,82.3,71.0,30.12,ENE,68,0.9,1.8,69,0.00,,,0.00,WUHU216HW,2013-12-07 18:34:00,
2013-12-07 13:39:00,81.9,70.8,30.11,ENE,68,0.2,1.1,69,0.00,,,0.00,WUHU216HW,2013-12-07 18:39:00,
2013-12-07 13:44:00,81.7,71.4,30.11,NE,45,0.2,2.9,71,0.00,,,0.00,WUHU216HW,2013-12-07 18:44:00,
2013-12-07 13:49:00,81.9,72.4,30.11,SW,225,0.4,2.9,73,0.00,,,0.00,WUHU216HW,2013-12-07 18:49:00,
2013-12-07 13:54:00,82.1,72.2,30.11,NW,315,1.1,2.5,72,0.00,,,0.00,WUHU216HW,2013-12-07 18:54:00,
2013-12-07 13:59:00,81.5,71.3,30.11,NNW,338,1.8,2.5,71,0.00,,,0.00,WUHU216HW,2013-12-07 18:59:00,
2013-12-07 14:04:00,81.4,71.5,30.11,NW,315,2.0,2.0,72,0.00,,,0.00,WUHU216HW,2013-12-07 19:04:00,
2013-12-07 14:10:00,81.0,71.1,30.11,WSW,248,3.6,3.6,72,0.00,,,0.00,WUHU216HW,2013-12-07 19:10:00,
2013-12-07 14:15:00,81.2,71.7,30.11,SSW,203,0.4,3.6,73,0.00,,,0.00,WUHU216HW,2013-12-07 19:15:00,
2013-12-07 14:20:00,81.2,71.3,30.10,WSW,248,0.9,2.5,72,0.00,,,0.00,WUHU216HW,2013-12-07 19:20:00,
2013-12-07 14:25:00,81.2,71.7,30.11,WNW,293,1.8,2.5,73,0.00,,,0.00,WUHU216HW,2013-12-07 19:25:00,
2013-12-07 14:30:00,81.4,71.5,30.10,West,270,2.9,3.4,72,0.00,,,0.00,WUHU216HW,2013-12-07 19:30:00,
2013-12-07 14:35:00,81.2,71.3,30.10,SW,225,2.2,3.6,72,0.00,,,0.00,WUHU216HW,2013-12-07 19:35:00,
2013-12-07 14:40:00,81.2,71.3,30.10,WSW,248,2.0,3.6,72,0.00,,,0.00,WUHU216HW,2013-12-07 19:40:00,
2013-12-07 14:45:00,81.2,71.3,30.10,West,270,3.4,3.4,72,0.00,,,0.00,WUHU216HW,2013-12-07 19:45:00,
2013-12-07 14:50:00,81.0,71.1,30.10,WSW,248,1.1,3.4,72,0.00,,,0.00,WUHU216HW,2013-12-07 19:50:00,
2013-12-07 14:55:00,81.0,71.6,30.10,SW,225,0.2,1.8,73,0.00,,,0.00,WUHU216HW,2013-12-07 19:55:00,
2013-12-07 15:00:00,80.8,71.0,30.10,SE,135,0.4,1.8,72,0.00,,,0.00,WUHU216HW,2013-12-07 20:00:00,
2013-12-07 15:05:00,80.5,70.7,30.10,SW,225,2.7,2.7,72,0.00,,,0.00,WUHU216HW,2013-12-07 20:05:00,
2013-12-07 15:10:00,80.3,70.8,30.10,NW,315,1.8,2.7,73,0.00,,,0.00,WUHU216HW,2013-12-07 20:10:00,
2013-12-07 15:16:00,80.3,70.5,30.10,NW,315,2.0,2.0,72,0.00,,,0.00,WUHU216HW,2013-12-07 20:16:00,
2013-12-07 15:21:00,80.3,70.5,30.09,SW,225,0.0,2.0,72,0.00,,,0.00,WUHU216HW,2013-12-07 20:21:00,
2013-12-07 15:26:00,80.1,70.3,30.09,WSW,248,2.7,3.4,72,0.00,,,0.00,WUHU216HW,2013-12-07 20:26:00,
2013-12-07 15:31:00,80.1,70.7,30.09,West,270,2.5,3.4,73,0.00,,,0.00,WUHU216HW,2013-12-07 20:31:00,
2013-12-07 15:36:00,79.9,70.5,30.09,NW,315,1.6,2.5,73,0.00,,,0.00,WUHU216HW,2013-12-07 20:36:00,
2013-12-07 15:41:00,80.1,70.7,30.09,NNW,338,1.1,2.5,73,0.00,,,0.00,WUHU216HW,2013-12-07 20:41:00,
2013-12-07 15:46:00,80.1,70.3,30.10,WNW,293,1.8,3.1,72,0.00,,,0.00,WUHU216HW,2013-12-07 20:46:00,
2013-12-07 15:51:00,80.1,70.3,30.10,NW,315,1.3,3.1,72,0.00,,,0.00,WUHU216HW,2013-12-07 20:51:00,
2013-12-07 15:56:00,80.3,70.5,30.10,WSW,248,2.2,2.2,72,0.00,,,0.00,WUHU216HW,2013-12-07 20:56:00,
2013-12-07 16:01:00,80.1,70.3,30.10,WSW,248,0.7,2.2,72,0.00,,,0.00,WUHU216HW,2013-12-07 21:01:00,
2013-12-07 16:06:00,80.1,70.3,30.10,NW,315,2.5,2.7,72,0.00,,,0.00,WUHU216HW,2013-12-07 21:06:00,
2013-12-07 16:11:00,79.9,70.1,30.10,WNW,293,2.5,3.8,72,0.00,,,0.00,WUHU216HW,2013-12-07 21:11:00,
2013-12-07 16:16:00,79.6,69.8,30.10,West,270,1.3,3.8,72,0.00,,,0.00,WUHU216HW,2013-12-07 21:16:00,
2013-12-07 16:22:00,79.6,69.8,30.10,NW,315,2.0,2.5,72,0.00,,,0.00,WUHU216HW,2013-12-07 21:22:00,
2013-12-07 16:27:00,79.2,69.4,30.10,NW,315,3.6,3.6,72,0.00,,,0.00,WUHU216HW,2013-12-07 21:27:00,
2013-12-07 16:32:00,79.2,69.4,30.10,West,270,0.0,3.6,72,0.00,,,0.00,WUHU216HW,2013-12-07 21:32:00,
2013-12-07 16:37:00,79.0,69.6,30.10,NNW,338,2.5,4.3,73,0.00,,,0.00,WUHU216HW,2013-12-07 21:37:00,
2013-12-07 16:42:00,78.8,69.4,30.10,West,270,2.5,4.3,73,0.00,,,0.00,WUHU216HW,2013-12-07 21:42:00,
2013-12-07 16:47:00,78.8,69.4,30.10,WNW,293,0.9,2.7,73,0.00,,,0.00,WUHU216HW,2013-12-07 21:47:00,
2013-12-07 16:52:00,78.7,69.2,30.10,WNW,293,1.8,3.4,73,0.00,,,0.00,WUHU216HW,2013-12-07 21:52:00,
2013-12-07 16:57:00,78.5,69.0,30.10,NW,315,1.1,3.4,73,0.00,,,0.00,WUHU216HW,2013-12-07 21:57:00,
2013-12-07 17:02:00,78.3,69.0,30.10,NW,315,1.8,2.9,73,0.00,,,0.00,WUHU216HW,2013-12-07 22:02:00,
2013-12-07 17:07:00,78.1,68.8,30.10,NNW,338,2.2,2.9,73,0.00,,,0.00,WUHU216HW,2013-12-07 22:07:00,
2013-12-07 17:12:00,78.1,68.8,30.10,NNW,338,0.2,2.9,73,0.00,,,0.00,WUHU216HW,2013-12-07 22:12:00,
2013-12-07 17:17:00,77.9,68.6,30.10,NW,315,0.2,2.9,73,0.00,,,0.00,WUHU216HW,2013-12-07 22:17:00,
2013-12-07 17:22:00,77.8,68.4,30.11,NNW,338,1.1,2.9,73,0.00,,,0.00,WUHU216HW,2013-12-07 22:22:00,
2013-12-07 17:28:00,77.8,68.8,30.11,NNE,23,0.7,1.6,74,0.00,,,0.00,WUHU216HW,2013-12-07 22:28:00,
2013-12-07 17:33:00,77.6,68.6,30.11,NNW,338,0.9,1.6,74,0.00,,,0.00,WUHU216HW,2013-12-07 22:33:00,
2013-12-07 17:38:00,77.6,68.6,30.11,NW,315,1.1,1.3,74,0.00,,,0.00,WUHU216HW,2013-12-07 22:38:00,
2013-12-07 17:43:00,77.6,68.6,30.11,NNW,338,0.4,1.6,74,0.00,,,0.00,WUHU216HW,2013-12-07 22:43:00,
2013-12-07 17:48:00,77.4,68.5,30.11,NNW,338,0.4,2.0,74,0.00,,,0.00,WUHU216HW,2013-12-07 22:48:00,
2013-12-07 17:53:00,77.2,68.3,30.11,North,0,1.3,2.0,74,0.00,,,0.00,WUHU216HW,2013-12-07 22:53:00,
2013-12-07 17:58:00,77.0,68.1,30.11,NW,315,1.3,1.6,74,0.00,,,0.00,WUHU216HW,2013-12-07 22:58:00,
2013-12-07 18:03:00,77.0,68.5,30.11,NNW,338,1.8,1.8,75,0.00,,,0.00,WUHU216HW,2013-12-07 23:03:00,
2013-12-07 18:08:00,76.9,68.3,30.12,NNW,338,1.1,1.8,75,0.00,,,0.00,WUHU216HW,2013-12-07 23:08:00,
2013-12-07 18:13:00,76.7,68.1,30.11,North,0,1.1,1.8,75,0.00,,,0.00,WUHU216HW,2013-12-07 23:13:00,
2013-12-07 18:18:00,76.7,68.1,30.12,NNW,338,0.7,1.8,75,0.00,,,0.00,WUHU216HW,2013-12-07 23:18:00,
2013-12-07 18:23:00,76.3,67.8,30.12,NW,315,0.4,1.3,75,0.00,,,0.00,WUHU216HW,2013-12-07 23:23:00,
2013-12-07 18:28:00,76.3,67.8,30.12,NNE,23,0.0,0.9,75,0.00,,,0.00,WUHU216HW,2013-12-07 23:28:00,
2013-12-07 18:33:00,76.3,67.8,30.12,WNW,293,0.0,1.1,75,0.00,,,0.00,WUHU216HW,2013-12-07 23:33:00,
2013-12-07 18:39:00,76.1,67.7,30.12,WNW,293,0.0,1.1,75,0.00,,,0.00,WUHU216HW,2013-12-07 23:39:00,
2013-12-07 18:44:00,76.0,67.5,30.12,WNW,293,0.0,0.4,75,0.00,,,0.00,WUHU216HW,2013-12-07 23:44:00,
2013-12-07 18:49:00,76.0,67.5,30.12,SSW,203,0.2,0.4,75,0.00,,,0.00,WUHU216HW,2013-12-07 23:49:00,
2013-12-07 18:54:00,75.8,67.3,30.12,SSW,203,0.0,0.4,75,0.00,,,0.00,WUHU216HW,2013-12-07 23:54:00,
2013-12-07 18:59:00,75.8,67.3,30.12,SSW,203,0.0,0.2,75,0.00,,,0.00,WUHU216HW,2013-12-07 23:59:00,
2013-12-07 19:04:00,75.6,67.2,30.12,SSW,203,0.0,0.0,75,0.00,,,0.00,WUHU216HW,2013-12-08 00:04:00,
2013-12-07 19:09:00,75.6,67.2,30.13,SSW,203,0.0,0.0,75,0.00,,,0.00,WUHU216HW,2013-12-08 00:09:00,
2013-12-07 19:14:00,75.6,67.5,30.13,SSW,203,0.0,0.0,76,0.00,,,0.00,WUHU216HW,2013-12-08 00:14:00,
2013-12-07 19:19:00,75.4,67.3,30.13,South,180,0.4,0.4,76,0.00,,,0.00,WUHU216HW,2013-12-08 00:19:00,
2013-12-07 19:24:00,75.2,67.1,30.13,NNE,23,0.0,0.7,76,0.00,,,0.00,WUHU216HW,2013-12-08 00:24:00,
2013-12-07 19:29:00,75.1,67.4,30.13,NNE,23,0.0,0.7,77,0.00,,,0.00,WUHU216HW,2013-12-08 00:29:00,
2013-12-07 19:34:00,74.9,67.2,30.13,NNE,23,0.0,0.0,77,0.00,,,0.00,WUHU216HW,2013-12-08 00:34:00,
2013-12-07 19:39:00,74.9,67.2,30.13,NNE,23,0.0,0.0,77,0.00,,,0.00,WUHU216HW,2013-12-08 00:39:00,
2013-12-07 19:44:00,74.9,67.2,30.13,NNE,23,0.0,0.0,77,0.00,,,0.00,WUHU216HW,2013-12-08 00:44:00,
2013-12-07 19:50:00,74.9,67.2,30.13,NNE,23,0.2,0.2,77,0.00,,,0.00,WUHU216HW,2013-12-08 00:50:00,
2013-12-07 19:55:00,74.7,67.1,30.13,East,90,0.0,0.4,77,0.00,,,0.00,WUHU216HW,2013-12-08 00:55:00,
2013-12-07 20:00:00,74.5,67.2,30.13,East,90,0.0,0.4,78,0.00,,,0.00,WUHU216HW,2013-12-08 01:00:00,
2013-12-07 20:05:00,74.5,67.2,30.14,ENE,68,0.7,1.1,78,0.00,,,0.00,WUHU216HW,2013-12-08 01:05:00,
2013-12-07 20:10:00,74.3,67.1,30.14,North,0,0.2,1.1,78,0.00,,,0.00,WUHU216HW,2013-12-08 01:10:00,
2013-12-07 20:15:00,74.2,66.9,30.14,NNE,23,1.8,1.8,78,0.00,,,0.00,WUHU216HW,2013-12-08 01:15:00,
2013-12-07 20:20:00,74.2,66.9,30.14,NE,45,0.4,1.8,78,0.00,,,0.00,WUHU216HW,2013-12-08 01:20:00,
2013-12-07 20:25:00,74.2,66.9,30.14,NNE,23,0.0,2.2,78,0.00,,,0.00,WUHU216HW,2013-12-08 01:25:00,
2013-12-07 20:30:00,74.2,66.9,30.14,ESE,113,0.9,2.2,78,0.00,,,0.00,WUHU216HW,2013-12-08 01:30:00,
2013-12-07 20:35:00,74.0,66.7,30.14,NNE,23,1.6,2.0,78,0.00,,,0.00,WUHU216HW,2013-12-08 01:35:00,
2013-12-07 20:40:00,74.0,66.7,30.14,SE,135,1.6,1.6,78,0.00,,,0.00,WUHU216HW,2013-12-08 01:40:00,
2013-12-07 20:45:00,74.0,66.7,30.14,ESE,113,2.0,2.0,78,0.00,,,0.00,WUHU216HW,2013-12-08 01:45:00,
2013-12-07 20:50:00,73.8,66.6,30.14,ESE,113,0.7,2.9,78,0.00,,,0.00,WUHU216HW,2013-12-08 01:50:00,
2013-12-07 20:56:00,73.8,66.6,30.15,NE,45,0.0,2.9,78,0.00,,,0.00,WUHU216HW,2013-12-08 01:56:00,
2013-12-07 21:01:00,73.8,66.6,30.15,East,90,0.4,1.1,78,0.00,,,0.00,WUHU216HW,2013-12-08 02:01:00,
2013-12-07 21:06:00,73.8,66.6,30.14,NE,45,0.4,2.0,78,0.00,,,0.00,WUHU216HW,2013-12-08 02:06:00,
2013-12-07 21:11:00,73.6,66.4,30.15,ENE,68,0.7,2.0,78,0.00,,,0.00,WUHU216HW,2013-12-08 02:11:00,
2013-12-07 21:16:00,73.6,66.8,30.15,ESE,113,1.1,1.3,79,0.00,,,0.00,WUHU216HW,2013-12-08 02:16:00,
2013-12-07 21:21:00,73.4,66.6,30.15,SE,135,0.2,2.2,79,0.00,,,0.00,WUHU216HW,2013-12-08 02:21:00,
2013-12-07 21:26:00,73.4,66.6,30.15,East,90,1.3,2.5,79,0.00,,,0.00,WUHU216HW,2013-12-08 02:26:00,
2013-12-07 21:31:00,73.4,66.6,30.15,SE,135,0.4,2.5,79,0.00,,,0.00,WUHU216HW,2013-12-08 02:31:00,
2013-12-07 21:36:00,73.4,66.6,30.15,East,90,0.0,1.1,79,0.00,,,0.00,WUHU216HW,2013-12-08 02:36:00,
2013-12-07 21:41:00,73.4,66.6,30.15,East,90,0.7,1.1,79,0.00,,,0.00,WUHU216HW,2013-12-08 02:41:00,
2013-12-07 21:46:00,73.4,66.6,30.15,ENE,68,0.2,0.9,79,0.00,,,0.00,WUHU216HW,2013-12-08 02:46:00,
2013-12-07 21:51:00,73.4,66.6,30.15,ENE,68,0.2,0.9,79,0.00,,,0.00,WUHU216HW,2013-12-08 02:51:00,
2013-12-07 21:59:00,73.1,66.3,30.15,East,90,0.7,0.7,79,0.00,,,0.00,WUHU216HW,2013-12-08 02:59:00,
2013-12-07 22:05:00,73.1,66.3,30.15,SE,135,0.9,0.9,79,0.00,,,0.00,WUHU216HW,2013-12-08 03:05:00,
2013-12-07 22:10:00,73.1,66.3,30.15,ESE,113,0.9,1.3,79,0.00,,,0.00,WUHU216HW,2013-12-08 03:10:00,
2013-12-07 22:15:00,72.9,66.1,30.16,ESE,113,1.3,1.3,79,0.00,,,0.00,WUHU216HW,2013-12-08 03:15:00,
2013-12-07 22:20:00,72.7,65.9,30.15,ESE,113,0.2,1.3,79,0.00,,,0.00,WUHU216HW,2013-12-08 03:20:00,
2013-12-07 22:25:00,72.7,65.9,30.16,ESE,113,1.1,1.3,79,0.00,,,0.00,WUHU216HW,2013-12-08 03:25:00,
2013-12-07 22:30:00,72.7,65.9,30.16,East,90,0.2,1.1,79,0.00,,,0.00,WUHU216HW,2013-12-08 03:30:00,
2013-12-07 22:35:00,72.5,65.7,30.16,East,90,0.7,1.3,79,0.00,,,0.00,WUHU216HW,2013-12-08 03:35:00,
2013-12-07 22:40:00,72.5,65.7,30.16,NE,45,1.8,1.8,79,0.00,,,0.00,WUHU216HW,2013-12-08 03:40:00,
2013-12-07 22:45:00,72.4,65.2,30.15,East,90,0.2,2.0,78,0.00,,,0.00,WUHU216HW,2013-12-08 03:45:00,
2013-12-07 22:50:00,72.4,65.5,30.15,ESE,113,1.8,2.0,79,0.00,,,0.00,WUHU216HW,2013-12-08 03:50:00,
2013-12-07 22:55:00,72.2,65.4,30.15,ESE,113,2.2,2.7,79,0.00,,,0.00,WUHU216HW,2013-12-08 03:55:00,
2013-12-07 23:00:00,72.0,65.2,30.15,East,90,0.4,2.7,79,0.00,,,0.00,WUHU216HW,2013-12-08 04:00:00,
2013-12-07 23:05:00,72.0,65.2,30.15,ESE,113,0.9,1.8,79,0.00,,,0.00,WUHU216HW,2013-12-08 04:05:00,
2013-12-07 23:10:00,72.0,65.2,30.15,ESE,113,1.1,2.2,79,0.00,,,0.00,WUHU216HW,2013-12-08 04:10:00,
2013-12-07 23:15:00,72.0,65.2,30.15,ENE,68,0.4,2.2,79,0.00,,,0.00,WUHU216HW,2013-12-08 04:15:00,
2013-12-07 23:21:00,72.0,65.2,30.15,East,90,0.4,1.1,79,0.00,,,0.00,WUHU216HW,2013-12-08 04:21:00,
2013-12-07 23:26:00,71.8,65.0,30.15,ENE,68,1.1,1.1,79,0.00,,,0.00,WUHU216HW,2013-12-08 04:26:00,
2013-12-07 23:31:00,71.8,65.0,30.15,ESE,113,0.0,1.3,79,0.00,,,0.00,WUHU216HW,2013-12-08 04:31:00,
2013-12-07 23:36:00,71.8,65.0,30.15,ENE,68,0.7,1.3,79,0.00,,,0.00,WUHU216HW,2013-12-08 04:36:00,
2013-12-07 23:41:00,71.6,64.8,30.15,East,90,0.4,1.3,79,0.00,,,0.00,WUHU216HW,2013-12-08 04:41:00,
2013-12-07 23:46:00,71.6,64.8,30.15,ESE,113,0.9,1.6,79,0.00,,,0.00,WUHU216HW,2013-12-08 04:46:00,
2013-12-07 23:51:00,71.5,64.6,30.15,ESE,113,0.4,1.6,79,0.00,,,0.00,WUHU216HW,2013-12-08 04:51:00,
2013-12-07 23:56:00,71.5,64.6,30.15,NNE,23,0.4,0.7,79,0.00,,,0.00,WUHU216HW,2013-12-08 04:56:00,